Location: North Runcton
(52.7000°N, 0.4333°E)
Time: 05:22:22
(UTC+00:00)

Helios 1B - Pass Details

Date: 19 May 2025
Orbit: 608 x 609 km, 98.2° (Epoch: 13 June)

Event Time Altitude Azimuth Distance (km) Brightness Sun altitude
Rises 22:31:10 0° 15° (NNE) 2,887 8.9 -15.1°
Reaches altitude 10° 22:33:21 10° 17° (NNE) 1,977 8.0 -15.2°
Maximum altitude 22:37:40 80° 105° (ESE) 627 4.5 -15.4°
Enters shadow 22:40:11 24° 189° (S) 1,263 5.6 -15.5°
